Погода в Октябрьском

Россия / Оренбургская область     52°21′02″N   55°30′31″E
темп.,
°C
ветер,
м/с
пор.,
м/с
влажн.,
%
обл.,
%
осадки,
мм/ч
давл.,
гПа
погр.,
м
22 апреля, чт
чт2223:00+8ююв61447100 0.0 1030407
02:00+7ю71254100 0.1 1031789
05:00+6ю71060100 0.1 1032832
08:00+6юв61264100 0.0 1031545
11:00+6ююв71259100 0.0 1032738
14:00+7ююв71356100 0.0 1032694
17:00+7ю51057100 0.1 1032861
20:00+3ю51196100 3.1 1032575
23 апреля, пт
пт2323:00+5юв61091100 6.2 1031720
02:00+5вюв41086100 0.4 1030370
05:00+6вюв41082100 0.4 1029314
08:00+7юв51176100 0.0 1028382
11:00+11ююв6854100 0.0 1028744
14:00+13ююв8950100 0.0 10271398
17:00+9ююв71076100 0.1 10271184
20:00+9юв5975100 1.3 10261089
24 апреля, сб
сб2423:00+8вюв61381100 1.9 1023638
02:00+8вюв71377100 0.6 10201097
05:00+7вюв71089100 2.8 1017896
08:00+7вюв61079100 2.9 1015912
11:00+6вюв71191100 5.5 1014886
14:00+8ююв5879100 1.1 1013976
17:00+9юз237499 1.6 1013593
20:00+7зюз3692100 0.2 1014324
25 апреля, вс
вс2523:00+7зюз3794100 0.2 1015324
02:00+5юз34945 0.0 101688
05:00+5ююв3394100 0.0 101653
08:00+7ю4118895 0.0 1016362
11:00+10юз5108188 0.3 1016793
14:00+14зюз9134232 0.3 10172553
17:00+14зюз8123884 0.3 10172699
20:00+11зюз356120 0.0 1018123
26 апреля, пн
пн2623:00+9юз2371100 0.0 101946
02:00+9вюв1176100 0.1 101914
05:00+8вюв3379100 0.2 101966
08:00+9ю3687100 0.1 1019234
11:00+11зюз4566100 0.2 1019754
14:00+13юз3450100 0.0 10181305
17:00+12ююв3258100 0.0 1018826
20:00+10вюв2478100 0.0 1017203